Regional Weather Roundup
Issued by NWS Newport/Morehead, NC

Current Version | Previous Version | Text Only | Print | Product List | Glossary Off
Versions: 1 2 3 4 5 6 7 8 9 10 11 12 13 14 15 16 17 18 19 20 21 22 23 24 25 26 27 28 29 30 31 32 33 34 35 36 37 38 39 40 41 42 43 44 45 46 47 48 49 50
000 ASUS42 KMHX 011513 RWRMHX WEATHER ROUNDUP FOR EASTERN NORTH CAROLINA NATIONAL WEATHER SERVICE NEWPORT/MOREHEAD CITY NC 1100 AM EDT SAT AUG 01 2015 NOTE: "FAIR" INDICATES FEW OR NO CLOUDS BELOW 12,000 FEET WITH NO SIGNIFICANT WEATHER AND/OR OBSTRUCTIONS TO VISIBILITY NCZ015>017-031-032-045>047-102-103-011600- NORTH COAST CITY SKY/WX TMP DP RH WIND PRES REMARKS EDENTON N/A 84 71 63 SW3 29.94R ELIZABETH CITY SUNNY 86 69 56 SW6 29.94R KITTY HAWK MOSUNNY 87 73 62 SE10 29.94R MANTEO SUNNY 83 72 67 S10G17 29.95R $$ NCZ045>047-081-094-103-104-011600- CENTRAL COAST CITY SKY/WX TMP DP RH WIND PRES REMARKS FRISCO CLOUDY 80 71 74 SE13 29.95R SWANQUARTER N/A 84 N/A N/A S5 29.91R $$ NCZ095-097-098-100-101-011600- SOUTHERN COAST CITY SKY/WX TMP DP RH WIND PRES REMARKS BEAUFORT PTSUNNY 81 77 88 S9 29.94R CEDAR ISLAND N/A 84 N/A N/A S6 29.97S JACKSONVILLE MOSUNNY 83 74 74 VRB3 29.94R PINEY ISLAND PTSUNNY N/A N/A N/A S7 29.93S WILMINGTON MOSUNNY 83 75 77 SE7 29.94R $$ NCZ011>013-027>030-043-044-078>080-089-090>093-098-011600- COASTAL PLAIN CITY SKY/WX TMP DP RH WIND PRES REMARKS AHOSKIE SUNNY 85 66 52 CALM 29.93S CLINTON SUNNY 84 69 59 CALM 29.96R ELIZABETHTOWN SUNNY 86 68 55 E5 29.95R GOLDSBORO SUNNY 85 72 63 CALM 29.93S GREENVILLE MOSUNNY 88 73 62 SE5 29.95S HAVELOCK PTSUNNY 82 76 81 SW6 29.94S KENANSVILLE SUNNY N/A N/A N/A CALM 29.95S KINSTON SUNNY 84 72 65 N6 29.95S NEW BERN MOSUNNY 85 75 72 VRB3 29.94S RICHLANDS PTSUNNY 84 72 65 CALM 29.94S ROCKY MOUNT SUNNY 89 59 36 VRB3 29.95R WASHINGTON SUNNY 85 75 72 CALM 29.94S WHITEVILLE SUNNY 85 69 57 NE5 29.95R $$ AMZ130-135-150-152-154-156-158-170-250-252-270-ANZ085-086-088-633-658-670-011600- MARINE OBSERVATIONS STATION/POSITION TIME TEMP WIND PRES WAVE SWELL AIR SEA DIR/SP/G HT/PER HT/PER (UTC) (F) (DEG/KT/KT) (MB) (FT/S) (FT/S) CHESAPEAKE LIGHT 1500 80 190/ 11/ 11 1014.1 64 E VA BEACH 1450 82 81 190/ 8/ 10 1013.6 3/ 8 3/ 8 DUCK 1400 80 77 60/ 4/ 4 1012.5 2 E DUCK 1411 78 N/A 2/13 2/13 OREGON INLET 1400 81 81 160/ 10/ 13 1013.5 13E OREGON INLT 1500 81 N/A 4/ 8 2/13 HATTERAS CG 1400 78 80 140/ 8/ 13 1013.1 DIAMOND BUOY 1450 78 85 140/ 17/ 21 1014.0 4/ 7 3/ 7 CAPE LOOKOUT 1500 80 180/ 8/ 9 1013.6 BEAUFORT LAB 1400 80 82 190/ 5/ 7 1012.6 30 SE NEW RVR IN NOT AVBL 27 SE WRIGHTSVLE 1400 77 82 210/ 8/ 10 N/A 5 SE WRIGHTSVLE 1408 80 83 100/ 2/ 6 1013.7 225 S CAPE HAT 1450 83 81 220/ 16/ 19 1016.5 6/ 7 2/11 41 SE CHARLESTON 1450 76 84 70/ 16/ 19 1014.0 3/ 7 2/13 $$

USA.gov is the U.S. government's official web portal to all federal, state and local government web resources and services.